Location: Endfield
(51.6667°N, 0.0667°W)
Time: 13:37:39
(UTC+00:00)

Cosmos 2237 Rocket - Pass Details

Date: 19 May 2024
Orbit: 833 x 850 km, 71.0° (Epoch: 18 June)

Event Time Altitude Azimuth Distance (km) Brightness Sun altitude
Rises 21:35:36 0° 242° (WSW) 3,406 5.4 -11.9°
Reaches altitude 10° 21:38:17 10° 252° (WSW) 2,475 4.8 -12.2°
Maximum altitude 21:43:23 33° 316° (NW) 1,402 4.1 -12.6°
Drops below altitude 10° 21:48:31 10° 20° (NNE) 2,489 5.2 -13.0°
Sets 21:51:15 0° 30° (NNE) 3,427 5.8 -13.2°
